Hourly Data Report for October 01, 2012

All times are specified in Local Standard Time (LST). Add 1 hour to adjust for Daylight Saving Time where and when it is observed.

KITCHENER/WATERLOO
ONTARIO

43°27'39.000" N
80°22'43.000" W
321.60 m
6144239
71368
YKF

Download Data

Hourly Data (October 2012)
Hourly Data Report for October 1, 2012
Temp Definition
°C
Dew Point Temp Definition
°C
Rel Hum Definition
%
Wind Dir Definition
10's deg

Wind Spd Definition
km/h
Visibility Definition
km
Stn Press Definition
kPa
Hmdx Definition


Wind Chill Definition


Weather Definition


TIME
00:00 Legend Double Dagger 10.2 8.3 88 30 9 16.1 97.45     LegendNANA
01:00 Legend Double Dagger 10.9 9.1 88 28 13 16.1 97.41     LegendNANA
02:00 Legend Double Dagger 11.0 8.9 87 29 11 16.1 97.40     LegendNANA
03:00 Legend Double Dagger 10.6 8.3 86 29 13 16.1 97.36     LegendNANA
04:00 Legend Double Dagger 9.8 7.8 87 31 13 16.1 97.33     LegendNANA
05:00 Legend Double Dagger 8.6 7.3 91 29 9 16.1 97.37     LegendNANA
06:00 Legend Double Dagger 7.9 7.0 94 34 11 16.1 97.36     LegendNANA
07:00 Legend Double Dagger 9.3 8.2 93 26 11 16.1 97.47     LegendNANA
08:00 Legend Double Dagger 11.8 9.1 83 27 13 16.1 97.52     LegendNANA
09:00 Legend Double Dagger 13.5 9.3 75 27 17 16.1 97.56     LegendNANA
10:00 Legend Double Dagger 15.1 9.3 68 27 15 16.1 97.56     LegendNANA
11:00 Legend Double Dagger 16.3 8.9 61 27 18 16.1 97.51     LegendNANA
12:00 Legend Double Dagger 16.3 9.1 62 28 22 16.1 97.53     LegendNANA
13:00 Legend Double Dagger 17.5 9.1 58 31 15 16.1 97.48     LegendNANA
14:00 Legend Double Dagger 17.6 9.0 57 31 18 16.1 97.45     LegendNANA
15:00 Legend Double Dagger 16.6 9.1 61 32 11 16.1 97.42     LegendNANA
16:00 Legend Double Dagger 16.7 9.0 60 27 9 16.1 97.39     LegendNANA
17:00 Legend Double Dagger 15.3 9.2 67 1 8 16.1 97.37     LegendNANA
18:00 Legend Double Dagger 13.1 9.8 80   0 8.1 97.42     LegendNANA
19:00 Legend Double Dagger 11.2 9.5 89 1 4 16.1 97.49     LegendNANA
20:00 Legend Double Dagger 9.9 9.6 98   0 16.1 97.49     LegendNANA
21:00 Legend Double Dagger 9.2 8.8 97 19 4 16.1 97.48     LegendNANA
22:00 Legend Double Dagger 7.8 7.7 99 36 4 11.3 97.46     LegendNANA
23:00 Legend Double Dagger 7.0 6.9 99 29 4 4.0 97.45     LegendNANA

Notes on Data Quality.

Legend

  • E = Estimated
  • M = Missing
  • NA = Not Available
  • ‡ = Partner data that is not subject to review by the National Climate Archives
Date modified: